Weather History for Lima, OH

Change the Weather History Date:

Thursday, February 7, 2013

  Actual Average (KFDY) Record (KFDY)
Temperature  
Mean Temperature 34 °F -  
Max Temperature 45 °F 28 °F 50 °F (2009)
Min Temperature 23 °F 15 °F -14 °F (2014)
Degree Days  
Heating Degree Days 31    
Moisture  
Dew Point 26 °F    
Average Humidity 70    
Maximum Humidity 78    
Minimum Humidity 60    
Precipitation  
Precipitation 0.00 in - - ()
Sea Level Pressure  
Sea Level Pressure 30.06 in    
Wind  
Wind Speed 7 mph (SE)    
Max Wind Speed 16 mph    
Max Gust Speed -    
Visibility 8 miles    
Events      
Averages and records for this station are not official NWS values.
T = Trace of Precipitation, MM = Missing Value Source: NWS Daily Summary

Daily Weather History Graph

Daily Weather History Graph

Search for Another Location

Airport:

Trip Planner

Search our weather history database for the weather conditions in past years. The results will help you decide how hot, cold, wet, or windy it might be!

Date:

Astronomy

Feb. 07, 2013 Rise Set
Actual Time 7:39 AM EST 6:01 PM EST
Civil Twilight 7:10 AM EST 6:30 PM EST
Nautical Twilight 6:38 AM EST 7:02 PM EST
Astronomical Twilight 6:06 AM EST 7:34 PM EST
Moon 5:18 AM EST (2/7) 3:24 PM EST (2/7)
Length of Visible Light 11h 19m
Length of Day
10h 22m
Waning Crescent, 9% of the Moon is Illuminated
Feb 7
Waning Crescent
Feb 10
New
Feb 17
First Quarter
Feb 25
Full
Mar 4
Last Quarter

Hourly Weather History & Observations

Time (EST) Temp. Windchill Dew Point Humidity Pressure Visibility Wind Dir Wind Speed Gust Speed Precip Events Conditions
12:53 AM 26.1 °F - 17.1 °F 69% 30.26 in 9.0 mi Calm Calm - N/A   Clear
1:53 AM 24.1 °F 19.7 °F 17.1 °F 75% 30.25 in 9.0 mi East 3.5 mph - N/A   Clear
2:53 AM 23.0 °F 17.0 °F 16.0 °F 74% 30.25 in 9.0 mi East 4.6 mph - N/A   Clear
3:53 AM 25.0 °F 17.1 °F 17.1 °F 72% 30.20 in 8.0 mi ESE 6.9 mph - N/A   Clear
4:53 AM 26.1 °F 18.4 °F 19.0 °F 75% 30.21 in 7.0 mi East 6.9 mph - N/A   Partly Cloudy
5:53 AM 26.1 °F 17.6 °F 19.0 °F 75% 30.21 in 6.0 mi East 8.1 mph - N/A   Haze
6:53 AM 26.1 °F 17.6 °F 19.9 °F 78% 30.21 in 6.0 mi ESE 8.1 mph - N/A   Haze
7:53 AM 26.1 °F 17.6 °F 19.0 °F 75% 30.19 in 5.0 mi ESE 8.1 mph - N/A   Haze
8:53 AM 26.1 °F 15.6 °F 19.9 °F 78% 30.18 in 5.0 mi ESE 11.5 mph - N/A   Haze
9:53 AM 30.0 °F 20.0 °F 21.9 °F 72% 30.17 in 6.0 mi SE 12.7 mph - N/A   Haze
10:53 AM 36.0 °F 27.5 °F 26.1 °F 67% 30.13 in 7.0 mi SE 12.7 mph - N/A   Clear
11:53 AM 37.9 °F 31.5 °F 28.0 °F 68% 30.12 in 6.0 mi East 9.2 mph - N/A   Haze
12:53 PM 41.0 °F 35.2 °F 28.9 °F 62% 30.06 in 7.0 mi SE 9.2 mph - N/A   Clear
1:53 PM 43.0 °F 38.2 °F 30.0 °F 60% 30.04 in 7.0 mi SE 8.1 mph - N/A   Clear
2:53 PM 43.0 °F 38.2 °F 32.0 °F 65% 30.00 in 6.0 mi East 8.1 mph - N/A   Haze
3:53 PM 45.0 °F 40.6 °F 32.0 °F 60% 29.97 in 7.0 mi SE 8.1 mph - N/A   Clear
4:53 PM 44.1 °F 40.1 °F 33.1 °F 65% 29.96 in 7.0 mi SE 6.9 mph - N/A   Clear
5:53 PM 41.0 °F 35.2 °F 30.9 °F 67% 29.94 in 9.0 mi SSE 9.2 mph - N/A   Clear
6:53 PM 39.9 °F 33.4 °F 30.9 °F 70% 29.93 in 10.0 mi SE 10.4 mph - N/A   Clear
7:53 PM 39.0 °F 32.3 °F 30.9 °F 73% 29.90 in 9.0 mi SE 10.4 mph - N/A   Clear
8:53 PM 39.0 °F 32.8 °F 30.9 °F 73% 29.87 in 10.0 mi SE 9.2 mph - N/A   Clear
9:53 PM 41.0 °F 35.2 °F 30.9 °F 67% 29.83 in 10.0 mi SSE 9.2 mph - N/A   Clear
10:53 PM 43.0 °F 36.8 °F 32.0 °F 65% 29.79 in 10.0 mi SSE 11.5 mph - N/A   Mostly Cloudy
11:53 PM 43.0 °F 35.4 °F 32.0 °F 65% 29.76 in 10.0 mi SSE 16.1 mph - N/A   Overcast